This is the latest recevied weather packets stored in our database for station/object K6CED. If no packets are shown the sender has not sent any weather packets the latest 10 day(s).
| Time | Temp. | Humidity | Pressure | Rain* | Wind** | Luminosity | Snow |
|---|---|---|---|---|---|---|---|
| 1787429624 | 37.22° C | 32% | 1016.5 hPa | 0 mm | - | 783 W/m² | - |
| 1787429320 | 36.67° C | 32% | 1016.5 hPa | 0 mm | - | 790 W/m² | - |
| 1787429016 | 37.22° C | 31% | 1016.9 hPa | 0 mm | - | 798 W/m² | - |
| 1787428711 | 36.67° C | 31% | 1016.7 hPa | 0 mm | - | 806 W/m² | - |
| 1787428406 | 37.22° C | 29% | 1016.7 hPa | 0 mm | - | 816 W/m² | - |
| 1787428102 | 37.22° C | 30% | 1017.1 hPa | 0 mm | - | 824 W/m² | - |
| 1787427797 | 36.67° C | 31% | 1017 hPa | 0 mm | - | 830 W/m² | - |
| 1787427492 | 36.67° C | 31% | 1017.2 hPa | 0 mm | - | 837 W/m² | - |
| 1787427189 | 36.67° C | 31% | 1017.2 hPa | 0 mm | - | 842 W/m² | - |
| 1787426888 | 37.22° C | 31% | 1017.3 hPa | 0 mm | - | 845 W/m² | - |
| 1787426584 | 36.67° C | 31% | 1017.4 hPa | 0 mm | - | 847 W/m² | - |
| 1787426280 | 36.67° C | 32% | 1017.4 hPa | 0 mm | - | 849 W/m² | - |
| 1787425977 | 36.67° C | 32% | 1017.6 hPa | 0 mm | - | 849 W/m² | - |
| 1787425673 | 36.11° C | 31% | 1017.6 hPa | 0 mm | - | 849 W/m² | - |
| 1787425369 | 36.67° C | 31% | 1017.7 hPa | 0 mm | - | 847 W/m² | - |
| 1787425063 | 36.11° C | 33% | 1017.5 hPa | 0 mm | - | 843 W/m² | - |
| 1787424763 | 36.67° C | 32% | 1017.6 hPa | 0 mm | - | 839 W/m² | - |
| 1787424458 | 36.11° C | 32% | 1017.8 hPa | 0 mm | - | 834 W/m² | - |
| 1787424153 | 36.11° C | 32% | 1017.7 hPa | 0 mm | - | 826 W/m² | - |
| 1787423849 | 36.11° C | 33% | 1017.9 hPa | 0 mm | - | 822 W/m² | - |
| 1787423545 | 35.56° C | 33% | 1017.8 hPa | 0 mm | - | 816 W/m² | - |
| 1787423240 | 35.56° C | 33% | 1017.8 hPa | 0 mm | - | 809 W/m² | - |
| 1787422936 | 36.11° C | 32% | 1017.9 hPa | 0 mm | - | 807 W/m² | - |
| 1787422626 | 36.11° C | 33% | 1018.1 hPa | 0 mm | - | 797 W/m² | - |
| 1787422321 | 35.56° C | 34% | 1018 hPa | 0 mm | - | 793 W/m² | - |
* Rain latest hour (hover to see other rain measurements)
** Current wind speed in m/s (hover to see current wind gust speed)